Preview of NWS' New Version of Forecast
This preview is not operational and should not be used for support decisions.

Regional Weather Roundup (RWR)

Issued by National Weather Service (NWS)

                            
000
ASUS43 KLSX 252057
RWRMO 

WEATHER SUMMARY FOR MISSOURI
NATIONAL WEATHER SERVICE SPRINGFIELD MO
400 PM CDT SUN AUG 25 2019

NOTE: "FAIR" INDICATES FEW OR NO CLOUDS BELOW 12,000 FEET WITH NO
       SIGNIFICANT WEATHER AND/OR OBSTRUCTIONS TO VISIBILITY.
       CURRENT SKY AND/OR WEATHER CONDITIONS ARE NOT AVAILABLE FOR
       CHILLICOTHE AND FARMINGTON.

MOZ001>031-035>038-043-044-053-054-252200-
...NORTHERN AND WESTERN MISSOURI...
  
CITY           SKY/WX    TMP DP  RH WIND       PRES   REMARKS
KANSAS CTY INT RAIN      68  67  96 VRB5      29.82F FOG              
KANSAS C DTWN  HVY RAIN  70  66  88 VRB6      29.80F VSB 1/2          
LEE'S SUMMIT   HVY RAIN  69  67  93 S8        29.83S FOG              
ST JOSEPH      CLOUDY    68  65  90 E7        29.85F                  
CHILLICOTHE      N/A     70  66  87 NE6       29.87F                  
     
$$
MOZ066>068-077>081-088>096-101>105-252200-
...SOUTHWEST MISSOURI...
  
CITY           SKY/WX    TMP DP  RH WIND       PRES   REMARKS
SPRINGFIELD    MOSUNNY   73  68  84 SE10      29.85F                  
JOPLIN         PTSUNNY   79  70  74 CALM      29.84F                  
BRANSON        CLOUDY    73  72  94 N5        29.87F                  
               
$$
MOZ032>034-039>042-045>050-055>058-069>072-252200-
...CENTRAL MISSOURI...  
  
CITY           SKY/WX    TMP DP  RH WIND       PRES   REMARKS
COLUMBIA       NOT AVBL                                               
JEFFERSON CITY PTSUNNY   77  69  76 E12G18    29.84F                  
ROLLA          CLOUDY    77  71  82 E7        29.88F                  
SEDALIA        TSTM      70  70 100 S12G23    29.82F VSB 1            
WARRENSBURG    RAIN      70  68  94 E7        29.81F                  
               
$$
MOZ051-052-059>065-252200-
...EAST CENTRAL MISSOURI...
  
CITY           SKY/WX    TMP DP  RH WIND       PRES   REMARKS
ST LOUIS INTL  CLOUDY    69  66  90 E8        29.92F                  
                   
$$
MOZ072>076-082>087-097>100-106>115-252200-
...SOUTH CENTRAL AND SOUTHEAST MISSOURI...
  
CITY           SKY/WX    TMP DP  RH WIND       PRES   REMARKS
CAPE GIRARDEAU CLOUDY    79  71  76 CALM      29.90S                  
POPLAR BLUFF   LGT RAIN  75  71  87 S6        29.89F                  
WEST PLAINS    LGT RAIN  77  71  82 SE8       29.91F                  
                                       
$$